Regional Weather Roundup
Issued by NWS

Home | Current Version | Previous Version | Text Only | Print | Product List | Glossary Off
Versions: 1 2 3 4 5 6 7 8 9 10 11 12 13 14 15 16 17 18 19 20 21 22 23 24 25 26 27 28 29 30 31 32 33 34 35 36 37 38 39 40 41 42 43 44 45 46 47 48 49 50

000
ASUS43 KMPX 202001
RWRMN
WEATHER ROUNDUP FOR MINNESOTA
NATIONAL WEATHER SERVICE TWIN CITIES/CHANHASSEN MN
200 PM CST FRI JAN 20 2017


NOTE: "FAIR" INDICATES FEW OR NO CLOUDS BELOW 12,000 FEET WITH NO
SIGNIFICANT WEATHER AND/OR OBSTRUCTIONS TO VISIBILITY. N/A MEANS
CURRENT SKY AND/OR WEATHER CONDITIONS ARE NOT AVAILABLE.

MNZ060>063-068>070-202100-
   Twin Cities Metro

CITY           SKY/WX    TMP DP  RH WIND       PRES   REMARKS
TWIN CITIES    CLOUDY    37  34  89 SE6       29.55F
ST PAUL        CLOUDY    36  36 100 E6        29.56F FOG
CRYSTAL        CLOUDY    37  33  85 SE5       29.53F
BLAINE         CLOUDY    37  37 100 SE5       29.54F FOG
LAKEVILLE        N/A     36  36 100 SE5       29.55R FOG
EDEN PRAIRIE   CLOUDY    38  35  89 SE5       29.53F
SOUTH ST PAUL  CLOUDY    37  36  96 SE5       29.55S FOG
LAKE ELMO      FOG       36  36 100 E5        29.55F VSB 1
$$
MNZ001>005-007-008-013>017-022>024-027-028-202100-
   Northwest Minnesota

CITY           SKY/WX    TMP DP  RH WIND       PRES   REMARKS
BEMIDJI        CLOUDY    34  33  98 SE9       29.50F FOG     WCI  27
HALLOCK        FOG       36  34  93 SE8       29.47F VSB 1
ROSEAU         DRIZZLE   37  34  87 SE6       29.50S
WARROAD        RAIN      37  34  87 S5        29.51S
THIEF RVR FALL CLOUDY    36  34  92 SE9       29.49F FOG
CROOKSTON      CLOUDY    36  36 100 S9        29.49S FOG
FOSSTON        CLOUDY    36  36 100 SE8       29.49S
DETROIT LAKES  CLOUDY    34  34 100 SE10      29.48F FOG     WCI  26
MOORHEAD       CLOUDY    36  34  93 SE9       29.46F FOG
PARK RAPIDS    FOG       35  32  88 SE12      29.49F VSB 3/4 WCI  27
MAHNOMEN       CLOUDY    35  34  94 SE7       29.48S WCI  29
$$
MNZ006-009>011-018-025>026-202100-
   North Central Minnesota

CITY           SKY/WX    TMP DP  RH WIND       PRES   REMARKS
BAUDETTE       LGT RAIN  37  35  92 SE8       29.50F
FLAG ISLAND    CLOUDY    36  36 100 SE3       29.51F FOG
INTL FALLS     CLOUDY    38  34  85 SE10      29.54F
WASKISH        LGT RAIN  37  36  93 SE7       29.52S
BIG FORK       LGT RAIN  37  34  87 SE6       29.53F
LONGVILLE      DRIZZLE   36  36 100 SE5       29.52F
GRAND RAPIDS   LGT RAIN  36  34  92 SE6       29.55F FOG
CRANE LAKE     CLOUDY    37  36  93 CALM      29.58F
ORR            FLURRIES  37  34  87 CALM      29.52F
COOK           LGT RAIN  37  36  93 SE5       29.55F
WALKER         CLOUDY    34  34  99 SE5       29.50F FOG     WCI  30
$$
MNZ012-019>021-037-202100-
   Northeast Minnesota

CITY           SKY/WX    TMP DP  RH WIND       PRES   REMARKS
DULUTH         LGT RAIN  35  33  92 E16       29.56S FOG     WCI  25
ELY            LGT RAIN  37  34  87 SE5       29.57S
HIBBING        LGT RAIN  34  34 100 SE8       29.55F FOG     WCI  27
EVELETH        DRIZZLE   37  36  96 SE5       29.56F
DULUTH HARBOR  MIX PCPN  34  34 100 E9        29.60S VSB 1   WCI  26
TWO HARBORS    LGT RAIN  37  34  87 E16       29.57S
SILVER BAY     DRZL/FOG  36  36 100 NE9       29.59F VSB 1/2
GRAND MARAIS     N/A     36  34  92 NE7       29.63F
G MARAIS ARPRT CLOUDY    34  30  86 CALM      29.61F FOG
$$
MNZ029>031-032-039>041-046>048-054>057-064-202100-
   West Central Minnesota

CITY           SKY/WX    TMP DP  RH WIND       PRES   REMARKS
FERGUS FALLS   CLOUDY    36  36 100 SE12      29.50F FOG
WHEATON        CLOUDY    43  43 100 E13       29.45F FOG
MORRIS         CLOUDY    36  34  93 SE13      29.45F FOG
ALEXANDRIA     CLOUDY    33  33 100 SE8       29.49F FOG     WCI  26
ELBOW LAKE     CLOUDY    34  34 100 SE12      29.47F FOG     WCI  25
WADENA         FOG       34  34 100 E9        29.49F VSB 1   WCI  26
GLENWOOD       MIX PCPN  34  34 100 E8        29.49F VSB 1   WCI  27
APPLETON       CLOUDY    36  34  93 E10       29.45F FOG
BENSON         CLOUDY    37  34  87 SE9       29.49F
ORTONVILLE     CLOUDY    36  34  93 SE12      29.43F FOG
MADISON        CLOUDY    37  37 100 SE12      29.44F FOG
WILLMAR        FOG       36  36 100 E8        29.50F VSB 1/4
$$
MNZ033>034-036-042>043-049>051-058-059-202100-
   Central Minnesota

CITY           SKY/WX    TMP DP  RH WIND       PRES   REMARKS
ST CLOUD       FOG       35  35 100 SE6       29.52F VSB 1/2 WCI  30
SAUK CENTRE    CLOUDY    33  33 100 SE8       29.50F FOG     WCI  26
PAYNESVILLE    FOG       34  34 100 SE7       29.51F VSB 1   WCI  28
AITKIN         CLOUDY    37  34  87 SE5       29.52F FOG
PINE RIVER     CLOUDY    34  34 100 SE8       29.56F FOG     WCI  27
BRAINERD       CLOUDY    35  34  96 SE6       29.53F FOG     WCI  30
STAPLES        CLOUDY    34  34 100 SE5       29.51F FOG     WCI  30
LONG PRAIRIE   CLOUDY    32  32 100 E7        29.51F FOG     WCI  26
LITTLE FALLS   FOG       34  32  93 E6        29.53F VSB 3/4 WCI  29
LITCHFIELD     FOG       36  36 100 SE6       29.51F VSB 1
BUFFALO        CLOUDY    36  34  95 SE3       29.53F FOG
MAPLE LAKE     CLOUDY    37  37 100 MISG      29.53F FOG
HUTCHINSON     FOG       35  35 100 E8        29.52F VSB 1/2 WCI  29
$$
MNZ037-044-045-052-053-202100-
   East Central Minnesota

CITY           SKY/WX    TMP DP  RH WIND       PRES   REMARKS
PRINCETON      FOG       37  36  93 SE3       29.54F VSB 1
MORA           FOG       34  32  93 SE5       29.57F VSB 1   WCI  30
CAMBRIDGE      CLOUDY    37  36  93 SE3       29.53F FOG
RUSH CITY      CLOUDY    36  34  93 SE5       29.55F FOG
MOOSE LAKE     CLOUDY    36  34  93 CALM      29.54F FOG
HINCKLEY       CLOUDY    36  36 100 SE6       29.56F FOG
CLOQUET        LGT RAIN  34  34 100 E5        29.57S WCI  30
MCGREGOR       CLOUDY    36  34  93 SE5       29.54F
$$
MNZ071>073-080-081-089-090-097-098-202100-
   Southwest Minnesota

CITY           SKY/WX    TMP DP  RH WIND       PRES   REMARKS
MONTEVIDEO     CLOUDY    36  36 100 SE8       29.48F FOG
GRANITE FALLS  CLOUDY    37  36  96 E8        29.49S FOG
CANBY          CLOUDY    37  37  99 CALM      29.44F FOG
MARSHALL       CLOUDY    39  38  96 SE12      29.45F
REDWOOD FALLS  CLOUDY    36  34  92 SE9       29.48F
OLIVIA         FOG       36  34  93 E7        29.49S VSB 1/4
PIPESTONE      FOG       37  37 100 S13       29.41F VSB<1/4
WINDOM         FOG       37  37 100 SE9       29.47F VSB 1/2
WORTHINGTON    CLOUDY    37  37 100 SE13      29.46F FOG
JACKSON        FOG       34  34 100 S9        29.50R VSB 1/4 WCI  26
TRACY          CLOUDY    39  39  99 S8        29.45F FOG
SLAYTON        CLOUDY    36  36 100 SE12      29.45F FOG
$$
MNZ065>067-074>077-082>085-091>093-202100-
   South Central Minnesota

CITY           SKY/WX    TMP DP  RH WIND       PRES   REMARKS
MANKATO        CLOUDY    36  35  96 SE8       29.52F FOG
NEW ULM        CLOUDY    37  36  93 SE7       29.49F
ST JAMES       CLOUDY    37  37 100 SE8       29.51S
FAIRMONT       CLOUDY    36  35  96 S10       29.52R FOG
GLENCOE        FOG       36  37 100 E5        29.52S VSB 3/4
FARIBAULT        N/A     36  36 100 SE3       29.54S FOG
OWATONNA       CLOUDY    36  34  93 SE5       29.52F FOG
WASECA         CLOUDY    36  36 100 SE5       29.54S FOG
ALBERT LEA     FOG       36  36 100 S6        29.52S VSB 1
$$
MNZ078>079-086>088-094>096-202100-
   Southeast Minnesota

CITY           SKY/WX    TMP DP  RH WIND       PRES   REMARKS
ROCHESTER      FOG       34  34 100 S6        29.54F VSB 1/2 WCI  29
RED WING       FOG       36  36 100 SE7       29.56S VSB 3/4
STANTON        CLOUDY    37  35  89 S5        29.55R
DODGE CENTER   FOG       34  34 100 CALM      29.53F VSB<1/4
WINONA         FOG       36  36 100 SE7       29.59S VSB 1/2
AUSTIN         FOG       34  34 100 CALM      29.53F VSB<1/4
PRESTON        FOG       35  34  96 SE6       29.54F VSB 1/2 WCI  30
$$
ABBREVIATIONS USED IN REMARKS
   TC - TEMPERATURES IN CELSIUS
  WCI - WIND CHILL INDEX
   HX - HEAT INDEX
  VSB - VISIBILITY
$$




USA.gov is the U.S. government's official web portal to all federal, state and local government web resources and services.